Stations météo

réclame
Mon MeteoGroup
Meierwik, Allemagne (10033): Température de l'air & dewpoint: 12.12.2017 03:00:00 - 18.12.2017 03:00:00 (CET)Meierwik, Allemagne (10033): Vitesse du vent & gusts: 12.12.2017 03:00:00 - 18.12.2017 03:00:00 (CET)Meierwik, Allemagne (10033): Direction du vent: 12.12.2017 03:00:00 - 18.12.2017 03:00:00 (CET)Meierwik, Allemagne (10033): reduced air pressure: 12.12.2017 03:00:00 - 18.12.2017 03:00:00 (CET)Meierwik, Allemagne (10033): visibility: 12.12.2017 03:00:00 - 18.12.2017 03:00:00 (CET)
Date & Time tt [°C] td [°C] ff [km/h] ff [knt] fx [km/h] fx [knt] dd ppp [hPa] vv [km]
18.12.2017 03:00:00 1,2 0,3 18 10 - - SSW 1018,1 6
18.12.2017 02:00:00 1,4 0,3 24 13 - - S 1017,5 6
18.12.2017 01:00:00 1,4 0,2 25 14 - - S 1017,4 15
18.12.2017 00:00:00 1,2 0,1 25 14 - - S 1017,7 18
17.12.2017 23:00:00 1,0 -0,1 29 16 - - S 1018,0 20
17.12.2017 22:00:00 1,0 -0,6 25 14 - - S 1018,5 25
17.12.2017 21:00:00 0,8 -1,1 29 16 - - S 1018,7 25
17.12.2017 20:00:00 0,4 -1,3 29 16 - - S 1018,8 25
17.12.2017 19:00:00 0,5 -1,2 25 14 - - SSW 1019,0 25
17.12.2017 18:00:00 0,4 -1,4 22 12 - - SSW 1019,3 25
17.12.2017 17:00:00 0,5 -1,0 18 10 - - SSW 1019,5 25
17.12.2017 16:00:00 1,1 -1,1 11 6 - - SW 1019,8 30
17.12.2017 15:00:00 2,8 -0,9 11 6 - - WSW 1019,6 30
17.12.2017 14:00:00 4,4 0,7 4 2 - - N 1019,6 30
17.12.2017 13:00:00 2,8 -0,7 7 4 - - WSW 1019,6 30
17.12.2017 12:00:00 1,5 -0,7 11 6 - - WNW 1019,7 25
17.12.2017 11:00:00 0,5 -1,0 4 2 - - NW 1019,4 20
17.12.2017 10:00:00 -0,8 -1,7 7 4 - - WNW 1019,2 20
17.12.2017 09:00:00 -1,1 -2,0 7 4 - - NW 1018,2 20
17.12.2017 08:00:00 -0,7 -1,7 14 8 - - NNW 1017,5 15
17.12.2017 07:00:00 -0,8 -2,0 18 10 - - N 1016,6 15
17.12.2017 06:00:00 -0,3 -1,5 14 8 - - NNW 1015,8 15
17.12.2017 05:00:00 0,0 -1,6 18 10 - - NNW 1015,2 15
17.12.2017 04:00:00 -0,1 -2,0 15 8 - - NNW 1014,4 10
17.12.2017 03:00:00 -0,2 -2,3 18 10 - - N 1013,5 25
17.12.2017 02:00:00 0,3 -2,4 22 12 - - NW 1012,6 25
17.12.2017 01:00:00 -0,3 -1,9 14 8 - - NW 1012,0 25
17.12.2017 00:00:00 -0,9 -1,8 18 10 - - NW 1011,3 25
16.12.2017 23:00:00 -1,2 -2,4 18 10 - - NW 1010,4 30
16.12.2017 22:00:00 0,0 -1,8 18 10 - - NW 1009,7 30
16.12.2017 21:00:00 0,7 -1,4 18 10 - - NW 1009,1 30
16.12.2017 20:00:00 1,4 -0,7 22 12 - - NW 1008,3 30
16.12.2017 19:00:00 2,1 0,1 25 14 - - NW 1007,2 30
16.12.2017 18:00:00 3,4 1,1 25 14 - - WNW 1006,5 30
16.12.2017 17:00:00 3,3 1,2 25 14 - - WNW 1005,8 30
16.12.2017 16:00:00 3,2 1,0 18 10 - - W 1005,2 30
16.12.2017 15:00:00 3,4 1,0 22 12 - - W 1004,5 30
16.12.2017 14:00:00 4,1 1,6 25 14 - - WNW 1004,3 30
16.12.2017 13:00:00 4,1 1,6 22 12 - - W 1003,9 30
16.12.2017 12:00:00 3,4 1,4 22 12 - - W 1003,6 30
16.12.2017 11:00:00 2,6 1,2 22 12 - - W 1003,3 30
16.12.2017 10:00:00 1,2 0,8 18 10 - - W 1002,7 30
16.12.2017 09:00:00 -1,1 -1,6 14 8 - - WNW 1002,3 30
16.12.2017 08:00:00 -0,6 -1,2 18 10 - - WNW 1001,6 30
16.12.2017 07:00:00 -0,4 -1,3 18 10 - - W 1001,1 30
16.12.2017 06:00:00 0,2 -0,6 18 10 - - W 1000,7 30
16.12.2017 05:00:00 0,4 -0,1 14 8 - - W 1000,2 30
16.12.2017 04:00:00 -0,4 -1,1 18 10 - - W 1000,0 30
16.12.2017 03:00:00 0,8 -0,4 18 10 - - W 999,3 30
16.12.2017 02:00:00 2,3 1,3 18 10 - - W 998,9 30
16.12.2017 01:00:00 2,2 1,4 14 8 - - W 998,7 30
16.12.2017 00:00:00 2,7 1,9 22 12 - - W 998,5 30
15.12.2017 23:00:00 2,5 1,4 18 10 - - WSW 998,2 30
15.12.2017 22:00:00 2,2 1,3 22 12 - - WSW 997,9 30
15.12.2017 21:00:00 2,6 1,6 22 12 - - W 997,7 25
15.12.2017 20:00:00 2,7 1,6 18 10 - - WSW 997,2 25
15.12.2017 19:00:00 3,3 2,2 22 12 - - W 996,9 25
15.12.2017 18:00:00 3,7 2,4 25 14 - - W 996,3 8
15.12.2017 17:00:00 3,8 2,6 22 12 - - WSW 995,9 6
15.12.2017 16:00:00 4,1 2,5 22 12 - - WSW 995,4 6
15.12.2017 15:00:00 4,5 3,0 22 12 - - W 994,9 6
15.12.2017 14:00:00 4,6 3,1 26 14 - - W 994,1 6
15.12.2017 13:00:00 4,4 3,0 22 12 - - W 993,8 5
15.12.2017 12:00:00 3,9 2,6 18 10 - - WSW 993,4 5
15.12.2017 11:00:00 3,7 2,5 25 14 - - W 993,1 4,8
15.12.2017 10:00:00 2,9 2,1 15 8 - - WSW 992,4 4,5
15.12.2017 09:00:00 2,6 1,7 18 10 - - WSW 991,6 4,5
15.12.2017 08:00:00 2,7 1,9 14 8 - - SW 990,9 4,2
15.12.2017 07:00:00 2,5 1,6 13 7 - - SW 990,2 10
15.12.2017 06:00:00 3,0 1,9 18 10 - - WSW 989,7 12
15.12.2017 05:00:00 3,1 2,1 14 8 - - SW 989,1 12
15.12.2017 04:00:00 3,0 1,9 22 12 - - SW 988,4 15
15.12.2017 03:00:00 3,1 2,2 18 10 - - SSW 988,1 15
15.12.2017 02:00:00 3,1 1,9 18 10 - - SSW 987,6 15
15.12.2017 01:00:00 3,1 1,8 22 12 - - WSW 987,4 12
15.12.2017 00:00:00 3,4 2,1 22 12 - - WSW 987,1 15
14.12.2017 23:00:00 3,3 2,3 18 10 - - SW 986,9 15
14.12.2017 22:00:00 2,7 1,5 25 14 - - SW 986,9 20
14.12.2017 21:00:00 2,4 0,9 22 12 - - SW 986,7 25
14.12.2017 20:00:00 3,1 1,7 25 14 - - SW 986,2 25
14.12.2017 19:00:00 2,7 1,3 14 8 - - SW 986,0 25
14.12.2017 18:00:00 2,5 1,2 25 14 - - SW 985,7 25
14.12.2017 17:00:00 2,7 0,8 25 14 - - SW 985,6 30
14.12.2017 16:00:00 2,5 0,8 18 10 - - SW 985,3 25
14.12.2017 15:00:00 3,1 1,0 22 12 - - WSW 984,8 20
14.12.2017 14:00:00 3,0 1,9 18 10 - - SW 984,4 7
14.12.2017 13:00:00 3,8 1,0 29 16 - - WSW 983,9 20
14.12.2017 12:00:00 4,0 1,7 29 16 61 33 WSW 983,5 20
14.12.2017 11:00:00 4,2 1,5 25 14 - - WSW 983,2 15
14.12.2017 10:00:00 3,7 1,6 29 16 - - W 982,6 10
14.12.2017 09:00:00 3,3 1,7 36 19 65 35 W 981,5 25
14.12.2017 08:00:00 4,0 2,0 36 19 47 25 W 980,7 25
14.12.2017 07:00:00 4,2 2,6 35 19 - - W 979,9 10
14.12.2017 06:00:00 3,6 2,4 32 18 50 27 W 978,8 15
14.12.2017 05:00:00 3,8 2,3 43 23 61 33 WNW 978,2 12
14.12.2017 04:00:00 1,2 0,5 25 14 - - SSW 977,1 9
14.12.2017 03:00:00 1,0 0,3 22 12 - - S 978,4 7
14.12.2017 02:00:00 1,4 0,7 22 12 47 25 S 979,5 7
14.12.2017 01:00:00 2,7 2,3 25 14 - - S 981,1 6
14.12.2017 00:00:00 2,4 2,0 32 18 50 27 S 982,5 4,0
13.12.2017 23:00:00 1,8 1,4 25 14 50 27 S 984,1 0,4
13.12.2017 22:00:00 1,3 0,9 22 12 - - S 985,5 0,3
13.12.2017 21:00:00 1,2 0,6 25 14 50 27 SSW 987,1 3,5
13.12.2017 20:00:00 0,9 0,2 29 16 47 25 SSW 988,0 7
13.12.2017 19:00:00 0,9 0,0 29 16 - - SSW 989,2 8
13.12.2017 18:00:00 0,7 -0,1 29 16 50 27 SSW 990,4 4,0
13.12.2017 17:00:00 0,9 0,0 29 16 58 31 SSW 991,5 3,5
13.12.2017 16:00:00 0,9 -0,1 29 16 - - S 992,7 4,0
13.12.2017 15:00:00 0,9 -0,1 31 17 54 29 SSW 993,7 3,5
13.12.2017 14:00:00 1,5 0,3 32 18 58 31 SSW 995,0 3,0
13.12.2017 13:00:00 1,6 0,1 32 18 - - SSW 996,5 5
13.12.2017 12:00:00 1,6 0,0 36 19 68 37 S 997,6 6
13.12.2017 11:00:00 1,6 -0,1 32 18 61 33 SSW 999,4 6
13.12.2017 10:00:00 1,5 -0,6 32 18 - - SSW 1000,7 4,5
13.12.2017 09:00:00 1,3 -0,6 32 18 58 31 SSW 1001,8 7
13.12.2017 08:00:00 1,3 -0,8 32 18 58 31 SSW 1002,7 8
13.12.2017 07:00:00 1,3 -0,7 29 16 - - SSW 1003,9 12
13.12.2017 06:00:00 1,3 -0,8 29 16 50 27 SSW 1004,9 15
13.12.2017 05:00:00 1,4 -0,4 32 18 54 29 SSW 1005,6 15
13.12.2017 04:00:00 1,5 -0,1 29 16 - - SW 1006,3 15
13.12.2017 03:00:00 1,9 0,2 32 18 61 33 SW 1006,4 15
13.12.2017 02:00:00 2,7 1,1 36 19 54 29 SW 1006,3 18
13.12.2017 01:00:00 2,6 1,1 29 16 - - SW 1006,3 75
13.12.2017 00:00:00 2,8 1,4 32 18 50 27 SW 1006,5 20
12.12.2017 23:00:00 2,0 -0,4 29 16 - - SW 1005,9 20
12.12.2017 22:00:00 2,1 -0,3 29 16 - - SW 1006,1 20
12.12.2017 21:00:00 1,6 -0,5 25 14 - - SW 1006,1 20
12.12.2017 20:00:00 2,0 -0,2 25 14 - - SW 1005,9 20
12.12.2017 19:00:00 1,3 -1,2 22 12 - - WSW 1005,4 20
12.12.2017 18:00:00 0,9 -1,4 18 10 - - WSW 1004,7 20
12.12.2017 17:00:00 0,4 -1,8 18 10 - - WNW 1003,8 20
12.12.2017 16:00:00 1,6 -1,0 22 12 - - NW 1002,6 20
12.12.2017 15:00:00 2,1 -0,9 22 12 - - WNW 1001,2 20
12.12.2017 14:00:00 2,6 -0,7 25 14 - - NW 999,8 20
12.12.2017 13:00:00 1,8 -0,4 29 16 - - NW 998,8 20
12.12.2017 12:00:00 2,0 -0,3 29 16 - - NW 997,6 12
12.12.2017 11:00:00 1,8 -0,1 29 16 - - NNW 996,2 9
12.12.2017 10:00:00 1,8 0,0 25 14 - - NNW 994,3 12
12.12.2017 09:00:00 2,1 0,3 32 18 - - N 992,2 12
12.12.2017 08:00:00 1,9 0,4 29 16 - - N 990,8 18
12.12.2017 07:00:00 1,6 0,6 29 16 - - N 989,1 18
12.12.2017 06:00:00 1,6 0,6 22 12 - - N 988,3 13
12.12.2017 05:00:00 1,5 0,5 22 12 - - N 986,9 9
12.12.2017 04:00:00 1,4 0,5 25 14 - - N 986,2 8
12.12.2017 03:00:00 0,9 0,2 28 15 - - N 985,8 3,5

tt = Température de l'air
td = dewpoint
ff = Vitesse du vent
fx = gusts
dd = Direction du vent
ppp = reduced air pressure
vv = visibility

stations d'obs. à proximité